Year,Month,Day,Hour,Minute,Value (Times are PST for temperature in C)
2015,03,28,00,00,10.60
2015,03,28,00,01,10.60
2015,03,28,00,02,10.60
2015,03,28,00,03,10.60
2015,03,28,00,04,10.60
2015,03,28,00,05,10.60
2015,03,28,00,06,10.70
2015,03,28,00,07,10.70
2015,03,28,00,08,10.70
2015,03,28,00,09,10.70
2015,03,28,00,10,10.70
2015,03,28,00,11,10.70
2015,03,28,00,12,10.70
2015,03,28,00,13,10.70
2015,03,28,00,14,10.70
2015,03,28,00,15,10.70
2015,03,28,00,16,10.60
2015,03,28,00,17,10.60
2015,03,28,00,18,10.50
2015,03,28,00,19,10.40
2015,03,28,00,20,10.40
2015,03,28,00,21,10.30
2015,03,28,00,22,10.30
2015,03,28,00,23,10.30
2015,03,28,00,24,10.30
2015,03,28,00,25,10.20
2015,03,28,00,26,10.20
2015,03,28,00,27,10.20
2015,03,28,00,28,10.10
2015,03,28,00,29,10.10
2015,03,28,00,30,10.10
2015,03,28,00,31,10.00
2015,03,28,00,32,10.00
2015,03,28,00,33,10.00
2015,03,28,00,34,10.00
2015,03,28,00,35,10.00
2015,03,28,00,36,10.00
2015,03,28,00,37,9.90
2015,03,28,00,38,9.90
2015,03,28,00,39,9.90
2015,03,28,00,40,9.90
2015,03,28,00,41,10.00
2015,03,28,00,42,10.00
2015,03,28,00,43,10.00
2015,03,28,00,44,10.00
2015,03,28,00,45,10.00
2015,03,28,00,46,10.10
2015,03,28,00,47,10.10
2015,03,28,00,48,10.10
2015,03,28,00,49,10.10
2015,03,28,00,50,10.00
2015,03,28,00,51,10.00
2015,03,28,00,52,10.00
2015,03,28,00,53,10.00
2015,03,28,00,54,9.90
2015,03,28,00,55,9.90
2015,03,28,00,56,9.90
2015,03,28,00,57,9.90
2015,03,28,00,58,9.80
2015,03,28,00,59,9.80
2015,03,28,01,00,9.80
2015,03,28,01,01,9.80
2015,03,28,01,02,9.80
2015,03,28,01,03,9.80
2015,03,28,01,04,9.70
2015,03,28,01,05,9.70
2015,03,28,01,06,9.70
2015,03,28,01,07,9.70
2015,03,28,01,08,9.70
2015,03,28,01,09,9.70
2015,03,28,01,10,9.70
2015,03,28,01,11,9.70
2015,03,28,01,12,9.70
2015,03,28,01,13,9.70
2015,03,28,01,14,9.60
2015,03,28,01,15,9.60
2015,03,28,01,16,9.60
2015,03,28,01,17,9.60
2015,03,28,01,18,9.60
2015,03,28,01,19,9.60
2015,03,28,01,20,9.60
2015,03,28,01,21,9.50
2015,03,28,01,22,9.50
2015,03,28,01,23,9.50
2015,03,28,01,24,9.50
2015,03,28,01,25,9.50
2015,03,28,01,26,9.40
2015,03,28,01,27,9.40
2015,03,28,01,28,9.40
2015,03,28,01,29,9.40
2015,03,28,01,30,9.40
2015,03,28,01,31,9.40
2015,03,28,01,32,9.40
2015,03,28,01,33,9.40
2015,03,28,01,34,9.40
2015,03,28,01,35,9.40
2015,03,28,01,36,9.30
2015,03,28,01,37,9.30
2015,03,28,01,38,9.30
2015,03,28,01,39,9.30
2015,03,28,01,40,9.30
2015,03,28,01,41,9.30
2015,03,28,01,42,9.30
2015,03,28,01,43,9.30
2015,03,28,01,44,9.30
2015,03,28,01,45,9.30
2015,03,28,01,46,9.30
2015,03,28,01,47,9.30
2015,03,28,01,48,9.30
2015,03,28,01,49,9.30
2015,03,28,01,50,9.30
2015,03,28,01,51,9.30
2015,03,28,01,52,9.30
2015,03,28,01,53,9.30
2015,03,28,01,54,9.30
2015,03,28,01,55,9.30
2015,03,28,01,56,9.30
2015,03,28,01,57,9.20
2015,03,28,01,58,9.20
2015,03,28,01,59,9.20
2015,03,28,02,00,9.20
2015,03,28,02,01,9.20
2015,03,28,02,02,9.20
2015,03,28,02,03,9.20
2015,03,28,02,04,9.20
2015,03,28,02,05,9.20
2015,03,28,02,06,9.20
2015,03,28,02,07,9.20
2015,03,28,02,08,9.20
2015,03,28,02,09,9.20
2015,03,28,02,10,9.20
2015,03,28,02,11,9.20
2015,03,28,02,12,9.20
2015,03,28,02,13,9.20
2015,03,28,02,14,9.20
2015,03,28,02,15,9.20
2015,03,28,02,16,9.20
2015,03,28,02,17,9.20
2015,03,28,02,18,9.20
2015,03,28,02,19,9.20
2015,03,28,02,20,9.20
2015,03,28,02,21,9.20
2015,03,28,02,22,9.20
2015,03,28,02,23,9.30
2015,03,28,02,24,9.30
2015,03,28,02,25,9.40
2015,03,28,02,26,9.40
2015,03,28,02,27,9.50
2015,03,28,02,28,9.50
2015,03,28,02,29,9.50
2015,03,28,02,30,9.50
2015,03,28,02,31,9.50
2015,03,28,02,32,9.40
2015,03,28,02,33,9.40
2015,03,28,02,34,9.40
2015,03,28,02,35,9.40
2015,03,28,02,36,9.30
2015,03,28,02,37,9.30
2015,03,28,02,38,9.30
2015,03,28,02,39,9.20
2015,03,28,02,40,9.20
2015,03,28,02,41,9.20
2015,03,28,02,42,9.10
2015,03,28,02,43,9.10
2015,03,28,02,44,9.00
2015,03,28,02,45,9.00
2015,03,28,02,46,8.90
2015,03,28,02,47,8.90
2015,03,28,02,48,8.90
2015,03,28,02,49,8.80
2015,03,28,02,50,8.80
2015,03,28,02,51,8.80
2015,03,28,02,52,8.80
2015,03,28,02,53,8.70
2015,03,28,02,54,8.70
2015,03,28,02,55,8.70
2015,03,28,02,56,8.70
2015,03,28,02,57,8.60
2015,03,28,02,58,8.60
2015,03,28,02,59,8.60
2015,03,28,03,00,8.60
2015,03,28,03,01,8.60
2015,03,28,03,02,8.60
2015,03,28,03,03,8.50
2015,03,28,03,04,8.50
2015,03,28,03,05,8.50
2015,03,28,03,06,8.50
2015,03,28,03,07,8.50
2015,03,28,03,08,8.50
2015,03,28,03,09,8.40
2015,03,28,03,10,8.40
2015,03,28,03,11,8.40
2015,03,28,03,12,8.40
2015,03,28,03,13,8.40
2015,03,28,03,14,8.40
2015,03,28,03,15,8.40
2015,03,28,03,16,8.40
2015,03,28,03,17,8.40
2015,03,28,03,18,8.40
2015,03,28,03,19,8.40
2015,03,28,03,20,8.40
2015,03,28,03,21,8.40
2015,03,28,03,22,8.40
2015,03,28,03,23,8.30
2015,03,28,03,24,8.30
2015,03,28,03,25,8.30
2015,03,28,03,26,8.30
2015,03,28,03,27,8.30
2015,03,28,03,28,8.30
2015,03,28,03,29,8.30
2015,03,28,03,30,8.30
2015,03,28,03,31,8.30
2015,03,28,03,32,8.30
2015,03,28,03,33,8.30
2015,03,28,03,34,8.30
2015,03,28,03,35,8.30
2015,03,28,03,36,8.30
2015,03,28,03,37,8.30
2015,03,28,03,38,8.30
2015,03,28,03,39,8.30
2015,03,28,03,40,8.30
2015,03,28,03,41,8.30
2015,03,28,03,42,8.30
2015,03,28,03,43,8.30
2015,03,28,03,44,8.30
2015,03,28,03,45,8.30
2015,03,28,03,46,8.30
2015,03,28,03,47,8.30
2015,03,28,03,48,8.30
2015,03,28,03,49,8.30
2015,03,28,03,50,8.30
2015,03,28,03,51,8.30
2015,03,28,03,52,8.20
2015,03,28,03,53,8.20
2015,03,28,03,54,8.20
2015,03,28,03,55,8.20
2015,03,28,03,56,8.20
2015,03,28,03,57,8.20
2015,03,28,03,58,8.20
2015,03,28,03,59,8.20
2015,03,28,04,00,8.20
2015,03,28,04,01,8.20
2015,03,28,04,02,8.20
2015,03,28,04,03,8.20
2015,03,28,04,04,8.10
2015,03,28,04,05,8.10
2015,03,28,04,06,8.10
2015,03,28,04,07,8.10
2015,03,28,04,08,8.10
2015,03,28,04,09,8.10
2015,03,28,04,10,8.10
2015,03,28,04,11,8.10
2015,03,28,04,12,8.10
2015,03,28,04,13,8.10
2015,03,28,04,14,8.00
2015,03,28,04,15,8.00
2015,03,28,04,16,8.00
2015,03,28,04,17,8.00
2015,03,28,04,18,8.00
2015,03,28,04,19,7.90
2015,03,28,04,20,7.90
2015,03,28,04,21,7.90
2015,03,28,04,22,7.90
2015,03,28,04,23,7.90
2015,03,28,04,24,7.90
2015,03,28,04,25,7.90
2015,03,28,04,26,7.90
2015,03,28,04,27,7.90
2015,03,28,04,28,7.90
2015,03,28,04,29,7.90
2015,03,28,04,30,7.90
2015,03,28,04,31,7.90
2015,03,28,04,32,7.90
2015,03,28,04,33,7.90
2015,03,28,04,34,7.90
2015,03,28,04,35,7.90
2015,03,28,04,36,8.00
2015,03,28,04,37,8.00
2015,03,28,04,38,8.00
2015,03,28,04,39,8.00
2015,03,28,04,40,8.00
2015,03,28,04,41,8.00
2015,03,28,04,42,8.00
2015,03,28,04,43,8.00
2015,03,28,04,44,8.00
2015,03,28,04,45,8.00
2015,03,28,04,46,8.00
2015,03,28,04,47,8.00
2015,03,28,04,48,8.00
2015,03,28,04,49,8.00
2015,03,28,04,50,8.00
2015,03,28,04,51,8.00
2015,03,28,04,52,8.00
2015,03,28,04,53,8.00
2015,03,28,04,54,7.90
2015,03,28,04,55,7.90
2015,03,28,04,56,7.90
2015,03,28,04,57,7.90
2015,03,28,04,58,7.90
2015,03,28,04,59,7.90
2015,03,28,05,00,7.90
2015,03,28,05,01,7.90
2015,03,28,05,02,7.90
2015,03,28,05,03,7.90
2015,03,28,05,04,7.90
2015,03,28,05,05,7.90
2015,03,28,05,06,7.90
2015,03,28,05,07,7.90
2015,03,28,05,08,7.90
2015,03,28,05,09,7.90
2015,03,28,05,10,7.90
2015,03,28,05,11,7.90
2015,03,28,05,12,7.90
2015,03,28,05,13,7.90
2015,03,28,05,14,7.90
2015,03,28,05,15,7.90
2015,03,28,05,16,7.90
2015,03,28,05,17,7.90
2015,03,28,05,18,7.90
2015,03,28,05,19,7.90
2015,03,28,05,20,7.90
2015,03,28,05,21,7.90
2015,03,28,05,22,7.90
2015,03,28,05,23,7.80
2015,03,28,05,24,7.80
2015,03,28,05,25,7.80
2015,03,28,05,26,7.80
2015,03,28,05,27,7.80
2015,03,28,05,28,7.80
2015,03,28,05,29,7.80
2015,03,28,05,30,7.70
2015,03,28,05,31,7.70
2015,03,28,05,32,7.80
2015,03,28,05,33,7.80
2015,03,28,05,34,7.80
2015,03,28,05,35,7.80
2015,03,28,05,36,7.80
2015,03,28,05,37,7.80
2015,03,28,05,38,7.80
2015,03,28,05,39,7.80
2015,03,28,05,40,7.80
2015,03,28,05,41,7.80
2015,03,28,05,42,7.80
2015,03,28,05,43,7.70
2015,03,28,05,44,7.70
2015,03,28,05,45,7.70
2015,03,28,05,46,7.70
2015,03,28,05,47,7.70
2015,03,28,05,48,7.70
2015,03,28,05,49,7.70
2015,03,28,05,50,7.70
2015,03,28,05,51,7.70
2015,03,28,05,52,7.70
2015,03,28,05,53,7.60
2015,03,28,05,54,7.60
2015,03,28,05,55,7.60
2015,03,28,05,56,7.60
2015,03,28,05,57,7.60
2015,03,28,05,58,7.60
2015,03,28,05,59,7.60
2015,03,28,06,00,7.60
2015,03,28,06,01,7.60
2015,03,28,06,02,7.60
2015,03,28,06,03,7.50
2015,03,28,06,04,7.50
2015,03,28,06,05,7.50
2015,03,28,06,06,7.50
2015,03,28,06,07,7.40
2015,03,28,06,08,7.40
2015,03,28,06,09,7.40
2015,03,28,06,10,7.40
2015,03,28,06,11,7.40
2015,03,28,06,12,7.40
2015,03,28,06,13,7.40
2015,03,28,06,14,7.40
2015,03,28,06,15,7.40
2015,03,28,06,16,7.40
2015,03,28,06,17,7.40
2015,03,28,06,18,7.40
2015,03,28,06,19,7.40
2015,03,28,06,20,7.40
2015,03,28,06,21,7.30
2015,03,28,06,22,7.30
2015,03,28,06,23,7.30
2015,03,28,06,24,7.30
2015,03,28,06,25,7.30
2015,03,28,06,26,7.30
2015,03,28,06,27,7.30
2015,03,28,06,28,7.30
2015,03,28,06,29,7.30
2015,03,28,06,30,7.30
2015,03,28,06,31,7.40
2015,03,28,06,32,7.40
2015,03,28,06,33,7.40
2015,03,28,06,34,7.40
2015,03,28,06,35,7.50
2015,03,28,06,36,7.50
2015,03,28,06,37,7.50
2015,03,28,06,38,7.50
2015,03,28,06,39,7.50
2015,03,28,06,40,7.50
2015,03,28,06,41,7.50
2015,03,28,06,42,7.60
2015,03,28,06,43,7.50
2015,03,28,06,44,7.50
2015,03,28,06,45,7.50
2015,03,28,06,46,7.40
2015,03,28,06,47,7.30
2015,03,28,06,48,7.30
2015,03,28,06,49,7.20
2015,03,28,06,50,7.20
2015,03,28,06,51,7.10
2015,03,28,06,52,7.10
2015,03,28,06,53,7.00
2015,03,28,06,54,7.00
2015,03,28,06,55,7.00
2015,03,28,06,56,7.00
2015,03,28,06,57,6.90
2015,03,28,06,58,6.90
2015,03,28,06,59,6.90
2015,03,28,07,00,6.90
2015,03,28,07,01,6.90
2015,03,28,07,02,6.90
2015,03,28,07,03,6.90
2015,03,28,07,04,6.80
2015,03,28,07,05,6.90
2015,03,28,07,06,6.90
2015,03,28,07,07,6.90
2015,03,28,07,08,6.90
2015,03,28,07,09,6.90
2015,03,28,07,10,6.80
2015,03,28,07,11,6.80
2015,03,28,07,12,6.80
2015,03,28,07,13,6.90
2015,03,28,07,14,6.90
2015,03,28,07,15,6.90
2015,03,28,07,16,6.90
2015,03,28,07,17,6.90
2015,03,28,07,18,6.90
2015,03,28,07,19,6.90
2015,03,28,07,20,6.90
2015,03,28,07,21,6.90
2015,03,28,07,22,6.90
2015,03,28,07,23,6.90
2015,03,28,07,24,6.90
2015,03,28,07,25,6.90
2015,03,28,07,26,6.90
2015,03,28,07,27,6.90
2015,03,28,07,28,6.90
2015,03,28,07,29,6.90
2015,03,28,07,30,6.90
2015,03,28,07,31,6.90
2015,03,28,07,32,6.90
2015,03,28,07,33,6.90
2015,03,28,07,34,6.90
2015,03,28,07,35,6.90
2015,03,28,07,36,7.00
2015,03,28,07,37,7.00
2015,03,28,07,38,7.10
2015,03,28,07,39,7.10
2015,03,28,07,40,7.10
2015,03,28,07,41,7.20
2015,03,28,07,42,7.20
2015,03,28,07,43,7.20
2015,03,28,07,44,7.30
2015,03,28,07,45,7.30
2015,03,28,07,46,7.30
2015,03,28,07,47,7.30
2015,03,28,07,48,7.30
2015,03,28,07,49,7.30
2015,03,28,07,50,7.30
2015,03,28,07,51,7.30
2015,03,28,07,52,7.30
2015,03,28,07,53,7.30
2015,03,28,07,54,7.30
2015,03,28,07,55,7.30
2015,03,28,07,56,7.30
2015,03,28,07,57,7.40
2015,03,28,07,58,7.40
2015,03,28,07,59,7.40
2015,03,28,08,00,7.50
2015,03,28,08,01,7.60
2015,03,28,08,02,7.60
2015,03,28,08,03,7.60
2015,03,28,08,04,7.60
2015,03,28,08,05,7.60
2015,03,28,08,06,7.60
2015,03,28,08,07,7.60
2015,03,28,08,08,7.60
2015,03,28,08,09,7.70
2015,03,28,08,10,7.70
2015,03,28,08,11,7.70
2015,03,28,08,12,7.70
2015,03,28,08,13,7.80
2015,03,28,08,14,7.80
2015,03,28,08,15,7.90
2015,03,28,08,16,7.90
2015,03,28,08,17,8.00
2015,03,28,08,18,8.00
2015,03,28,08,19,8.10
2015,03,28,08,20,8.10
2015,03,28,08,21,8.10
2015,03,28,08,22,8.20
2015,03,28,08,23,8.20
2015,03,28,08,24,8.30
2015,03,28,08,25,8.40
2015,03,28,08,26,8.40
2015,03,28,08,27,8.50
2015,03,28,08,28,8.60
2015,03,28,08,29,8.70
2015,03,28,08,30,8.70
2015,03,28,08,31,8.70
2015,03,28,08,32,8.70
2015,03,28,08,33,8.70
2015,03,28,08,34,8.70
2015,03,28,08,35,8.70
2015,03,28,08,36,8.70
2015,03,28,08,37,8.60
2015,03,28,08,38,8.60
2015,03,28,08,39,8.60
2015,03,28,08,40,8.70
2015,03,28,08,41,8.70
2015,03,28,08,42,8.70
2015,03,28,08,43,8.70
2015,03,28,08,44,8.80
2015,03,28,08,45,8.80
2015,03,28,08,46,8.80
2015,03,28,08,47,8.80
2015,03,28,08,48,8.90
2015,03,28,08,49,8.90
2015,03,28,08,50,8.90
2015,03,28,08,51,9.00
2015,03,28,08,52,9.00
2015,03,28,08,53,9.20
2015,03,28,08,54,9.30
2015,03,28,08,55,9.40
2015,03,28,08,56,9.60
2015,03,28,08,57,9.70
2015,03,28,08,58,9.80
2015,03,28,08,59,9.90
2015,03,28,09,00,10.00
2015,03,28,09,01,10.10
2015,03,28,09,02,10.10
2015,03,28,09,03,10.10
2015,03,28,09,04,10.10
2015,03,28,09,05,10.10
2015,03,28,09,06,10.10
2015,03,28,09,07,10.10
2015,03,28,09,08,10.10
2015,03,28,09,09,10.10
2015,03,28,09,10,10.10
2015,03,28,09,11,10.20
2015,03,28,09,12,10.20
2015,03,28,09,13,10.20
2015,03,28,09,14,10.20
2015,03,28,09,15,10.20
2015,03,28,09,16,10.20
2015,03,28,09,17,10.30
2015,03,28,09,18,10.30
2015,03,28,09,19,10.30
2015,03,28,09,20,10.40
2015,03,28,09,21,10.50
2015,03,28,09,22,10.60
2015,03,28,09,23,10.60
2015,03,28,09,24,10.60
2015,03,28,09,25,10.70
2015,03,28,09,26,10.70
2015,03,28,09,27,10.70
2015,03,28,09,28,10.70
2015,03,28,09,29,10.70
2015,03,28,09,30,10.70
2015,03,28,09,31,10.70
2015,03,28,09,32,10.70
2015,03,28,09,33,10.70
2015,03,28,09,34,10.80
2015,03,28,09,35,10.80
2015,03,28,09,36,10.80
2015,03,28,09,37,10.80
2015,03,28,09,38,10.80
2015,03,28,09,39,10.80
2015,03,28,09,40,10.80
2015,03,28,09,41,10.80
2015,03,28,09,42,10.80
2015,03,28,09,43,10.80
2015,03,28,09,44,10.80
2015,03,28,09,45,10.70
2015,03,28,09,46,10.70
2015,03,28,09,47,10.70
2015,03,28,09,48,10.60
2015,03,28,09,49,10.60
2015,03,28,09,50,10.60
2015,03,28,09,51,10.60
2015,03,28,09,52,10.60
2015,03,28,09,53,10.70
2015,03,28,09,54,10.70
2015,03,28,09,55,10.70
2015,03,28,09,56,10.60
2015,03,28,09,57,10.60
2015,03,28,09,58,10.60
2015,03,28,09,59,10.60
2015,03,28,10,00,10.60
2015,03,28,10,01,10.70
2015,03,28,10,02,10.70
2015,03,28,10,03,10.70
2015,03,28,10,04,10.70
2015,03,28,10,05,10.70
2015,03,28,10,06,10.70
2015,03,28,10,07,10.80
2015,03,28,10,08,10.80
2015,03,28,10,09,10.80
2015,03,28,10,10,10.80
2015,03,28,10,11,10.80
2015,03,28,10,12,10.70
2015,03,28,10,13,10.70
2015,03,28,10,14,10.70
2015,03,28,10,15,10.60
2015,03,28,10,16,10.50
2015,03,28,10,17,10.50
2015,03,28,10,18,10.50
2015,03,28,10,19,10.50
2015,03,28,10,20,10.50
2015,03,28,10,21,10.50
2015,03,28,10,22,10.50
2015,03,28,10,23,10.50
2015,03,28,10,24,10.50
2015,03,28,10,25,10.50
2015,03,28,10,26,10.60
2015,03,28,10,27,10.60
2015,03,28,10,28,10.60
2015,03,28,10,29,10.60
2015,03,28,10,30,10.60
2015,03,28,10,31,10.60
2015,03,28,10,32,10.60
2015,03,28,10,33,10.50
2015,03,28,10,34,10.50
2015,03,28,10,35,10.40
2015,03,28,10,36,10.40
2015,03,28,10,37,10.30
2015,03,28,10,38,10.30
2015,03,28,10,39,10.20
2015,03,28,10,40,10.20
2015,03,28,10,41,10.20
2015,03,28,10,42,10.10
2015,03,28,10,43,10.10
2015,03,28,10,44,10.00
2015,03,28,10,45,10.00
2015,03,28,10,46,10.00
2015,03,28,10,47,10.00
2015,03,28,10,48,9.90
2015,03,28,10,49,9.90
2015,03,28,10,50,9.90
2015,03,28,10,51,9.90
2015,03,28,10,52,9.80
2015,03,28,10,53,9.80
2015,03,28,10,54,9.80
2015,03,28,10,55,9.80
2015,03,28,10,56,9.80
2015,03,28,10,57,9.80
2015,03,28,10,58,9.80
2015,03,28,10,59,9.80
2015,03,28,11,00,9.80
2015,03,28,11,01,9.80
2015,03,28,11,02,9.80
2015,03,28,11,03,9.80
2015,03,28,11,04,9.80
2015,03,28,11,05,9.80
2015,03,28,11,06,9.70
2015,03,28,11,07,9.70
2015,03,28,11,08,9.70
2015,03,28,11,09,9.70
2015,03,28,11,10,9.70
2015,03,28,11,11,9.70
2015,03,28,11,12,9.70
2015,03,28,11,13,9.70
2015,03,28,11,14,9.70
2015,03,28,11,15,9.70
2015,03,28,11,16,9.70
2015,03,28,11,17,9.70
2015,03,28,11,18,9.70
2015,03,28,11,19,9.70
2015,03,28,11,20,9.70
2015,03,28,11,21,9.70
2015,03,28,11,22,9.70
2015,03,28,11,23,9.70
2015,03,28,11,24,9.70
2015,03,28,11,25,9.70
2015,03,28,11,26,9.70
2015,03,28,11,27,9.70
2015,03,28,11,28,9.70
2015,03,28,11,29,9.70
2015,03,28,11,30,9.70
2015,03,28,11,31,9.70
2015,03,28,11,32,9.70
2015,03,28,11,33,9.70
2015,03,28,11,34,9.70
2015,03,28,11,35,9.80
2015,03,28,11,36,9.80
2015,03,28,11,37,9.80
2015,03,28,11,38,9.80
2015,03,28,11,39,9.80
2015,03,28,11,40,9.80
2015,03,28,11,41,9.80
2015,03,28,11,42,9.80
2015,03,28,11,43,9.80
2015,03,28,11,44,9.80
2015,03,28,11,45,9.90
2015,03,28,11,46,9.90
2015,03,28,11,47,9.90
2015,03,28,11,48,9.90
2015,03,28,11,49,9.90
2015,03,28,11,50,9.90
2015,03,28,11,51,9.90
2015,03,28,11,52,9.90
2015,03,28,11,53,10.00
2015,03,28,11,54,10.00
2015,03,28,11,55,10.00
2015,03,28,11,56,10.00
2015,03,28,11,57,10.10
2015,03,28,11,58,10.10
2015,03,28,11,59,10.10
2015,03,28,12,00,10.10
2015,03,28,12,01,10.10
2015,03,28,12,02,10.10
2015,03,28,12,03,10.20
2015,03,28,12,04,10.20
2015,03,28,12,05,10.20
2015,03,28,12,06,10.20
2015,03,28,12,07,10.20
2015,03,28,12,08,10.30
2015,03,28,12,09,10.30
2015,03,28,12,10,10.30
2015,03,28,12,11,10.30
2015,03,28,12,12,10.30
2015,03,28,12,13,10.30
2015,03,28,12,14,10.40
2015,03,28,12,15,10.40
2015,03,28,12,16,10.40
2015,03,28,12,17,10.40
2015,03,28,12,18,10.40
2015,03,28,12,19,10.40
2015,03,28,12,20,10.50
2015,03,28,12,21,10.50
2015,03,28,12,22,10.50
2015,03,28,12,23,10.50
2015,03,28,12,24,10.60
2015,03,28,12,25,10.60
2015,03,28,12,26,10.60
2015,03,28,12,27,10.70
2015,03,28,12,28,10.70
2015,03,28,12,29,10.70
2015,03,28,12,30,10.70
2015,03,28,12,31,10.60
2015,03,28,12,32,10.70
2015,03,28,12,33,10.70
2015,03,28,12,34,10.70
2015,03,28,12,35,10.70
2015,03,28,12,36,10.70
2015,03,28,12,37,10.70
2015,03,28,12,38,10.70
2015,03,28,12,39,10.70
2015,03,28,12,40,10.70
2015,03,28,12,41,10.70
2015,03,28,12,42,10.70
2015,03,28,12,43,10.80
2015,03,28,12,44,10.80
2015,03,28,12,45,10.80
2015,03,28,12,46,10.90
2015,03,28,12,47,10.90
2015,03,28,12,48,10.90
2015,03,28,12,49,10.90
2015,03,28,12,50,10.90
2015,03,28,12,51,10.90
2015,03,28,12,52,11.00
2015,03,28,12,53,11.00
2015,03,28,12,54,11.00
2015,03,28,12,55,11.00
2015,03,28,12,56,11.00
2015,03,28,12,57,11.00
2015,03,28,12,58,11.10
2015,03,28,12,59,11.10
2015,03,28,13,00,11.10
2015,03,28,13,01,11.20
2015,03,28,13,02,11.20
2015,03,28,13,03,11.20
2015,03,28,13,04,11.20
2015,03,28,13,05,11.20
2015,03,28,13,06,11.20
2015,03,28,13,07,11.20
2015,03,28,13,08,11.20
2015,03,28,13,09,11.30
2015,03,28,13,10,11.30
2015,03,28,13,11,11.30
2015,03,28,13,12,11.20
2015,03,28,13,13,11.20
2015,03,28,13,14,11.20
2015,03,28,13,15,11.30
2015,03,28,13,16,11.30
2015,03,28,13,17,11.30
2015,03,28,13,18,11.30
2015,03,28,13,19,11.30
2015,03,28,13,20,11.30
2015,03,28,13,21,11.30
2015,03,28,13,22,11.30
2015,03,28,13,23,11.30
2015,03,28,13,24,11.40
2015,03,28,13,25,11.40
2015,03,28,13,26,11.50
2015,03,28,13,27,11.50
2015,03,28,13,28,11.60
2015,03,28,13,29,11.60
2015,03,28,13,30,11.70
2015,03,28,13,31,11.70
2015,03,28,13,32,11.80
2015,03,28,13,33,11.80
2015,03,28,13,34,11.80
2015,03,28,13,35,11.80
2015,03,28,13,36,11.90
2015,03,28,13,37,11.90
2015,03,28,13,38,11.90
2015,03,28,13,39,11.90
2015,03,28,13,40,11.90
2015,03,28,13,41,11.90
2015,03,28,13,42,12.00
2015,03,28,13,43,12.00
2015,03,28,13,44,12.10
2015,03,28,13,45,12.10
2015,03,28,13,46,12.20
2015,03,28,13,47,12.30
2015,03,28,13,48,12.40
2015,03,28,13,49,12.40
2015,03,28,13,50,12.50
2015,03,28,13,51,12.50
2015,03,28,13,52,12.60
2015,03,28,13,53,12.60
2015,03,28,13,54,12.70
2015,03,28,13,55,12.60
2015,03,28,13,56,12.60
2015,03,28,13,57,12.50
2015,03,28,13,58,12.40
2015,03,28,13,59,12.40
2015,03,28,14,00,12.40
2015,03,28,14,01,12.40
2015,03,28,14,02,12.40
2015,03,28,14,03,12.40
2015,03,28,14,04,12.50
2015,03,28,14,05,12.60
2015,03,28,14,06,12.70
2015,03,28,14,07,12.80
2015,03,28,14,08,12.90
2015,03,28,14,09,12.90
2015,03,28,14,10,12.90
2015,03,28,14,11,12.90
2015,03,28,14,12,12.80
2015,03,28,14,13,12.80
2015,03,28,14,14,12.70
2015,03,28,14,15,12.70
2015,03,28,14,16,12.70
2015,03,28,14,17,12.70
2015,03,28,14,18,12.70
2015,03,28,14,19,12.70
2015,03,28,14,20,12.80
2015,03,28,14,21,12.80
2015,03,28,14,22,12.80
2015,03,28,14,23,12.80
2015,03,28,14,24,12.80
2015,03,28,14,25,12.80
2015,03,28,14,26,12.80
2015,03,28,14,27,12.70
2015,03,28,14,28,12.60
2015,03,28,14,29,12.60
2015,03,28,14,30,12.50
2015,03,28,14,31,12.40
2015,03,28,14,32,12.30
2015,03,28,14,33,12.10
2015,03,28,14,34,12.00
2015,03,28,14,35,11.90
2015,03,28,14,36,11.80
2015,03,28,14,37,11.70
2015,03,28,14,38,11.70
2015,03,28,14,39,11.70
2015,03,28,14,40,11.70
2015,03,28,14,41,11.70
2015,03,28,14,42,11.70
2015,03,28,14,43,11.70
2015,03,28,14,44,11.70
2015,03,28,14,45,11.70
2015,03,28,14,46,11.70
2015,03,28,14,47,11.70
2015,03,28,14,48,11.60
2015,03,28,14,49,11.70
2015,03,28,14,50,11.70
2015,03,28,14,51,11.70
2015,03,28,14,52,11.70
2015,03,28,14,53,11.70
2015,03,28,14,54,11.70
2015,03,28,14,55,11.80
2015,03,28,14,56,11.80
2015,03,28,14,57,11.80
2015,03,28,14,58,11.80
2015,03,28,14,59,11.80
2015,03,28,15,00,11.80
2015,03,28,15,01,11.80
2015,03,28,15,02,11.80
2015,03,28,15,03,11.90
2015,03,28,15,04,11.90
2015,03,28,15,05,11.90
2015,03,28,15,06,12.00
2015,03,28,15,07,12.00
2015,03,28,15,08,12.10
2015,03,28,15,09,12.10
2015,03,28,15,10,12.10
2015,03,28,15,11,12.10
2015,03,28,15,12,12.10
2015,03,28,15,13,12.20
2015,03,28,15,14,12.20
2015,03,28,15,15,12.20
2015,03,28,15,16,12.20
2015,03,28,15,17,12.20
2015,03,28,15,18,12.10
2015,03,28,15,19,12.10
2015,03,28,15,20,12.10
2015,03,28,15,21,12.00
2015,03,28,15,22,12.00
2015,03,28,15,23,12.00
2015,03,28,15,24,12.00
2015,03,28,15,25,12.00
2015,03,28,15,26,12.00
2015,03,28,15,27,12.00
2015,03,28,15,28,12.00
2015,03,28,15,29,12.10
2015,03,28,15,30,12.10
2015,03,28,15,31,12.10
2015,03,28,15,32,12.00
2015,03,28,15,33,11.90
2015,03,28,15,34,11.80
2015,03,28,15,35,11.70
2015,03,28,15,36,11.60
2015,03,28,15,37,11.50
2015,03,28,15,38,11.30
2015,03,28,15,39,11.30
2015,03,28,15,40,11.20
2015,03,28,15,41,11.10
2015,03,28,15,42,11.10
2015,03,28,15,43,11.00
2015,03,28,15,44,11.00
2015,03,28,15,45,11.00
2015,03,28,15,46,11.00
2015,03,28,15,47,10.90
2015,03,28,15,48,10.90
2015,03,28,15,49,10.90
2015,03,28,15,50,10.80
2015,03,28,15,51,10.80
2015,03,28,15,52,10.80
2015,03,28,15,53,10.80
2015,03,28,15,54,10.80
2015,03,28,15,55,10.80
2015,03,28,15,56,10.80
2015,03,28,15,57,10.80
2015,03,28,15,58,10.80
2015,03,28,15,59,10.80
2015,03,28,16,00,10.80
2015,03,28,16,01,10.80
2015,03,28,16,02,10.80
2015,03,28,16,03,10.80
2015,03,28,16,04,10.80
2015,03,28,16,05,10.80
2015,03,28,16,06,10.90
2015,03,28,16,07,10.90
2015,03,28,16,08,11.00
2015,03,28,16,09,11.00
2015,03,28,16,10,11.10
2015,03,28,16,11,11.10
2015,03,28,16,12,11.20
2015,03,28,16,13,11.20
2015,03,28,16,14,11.20
2015,03,28,16,15,11.30
2015,03,28,16,16,11.30
2015,03,28,16,17,11.30
2015,03,28,16,18,11.30
2015,03,28,16,19,11.30
2015,03,28,16,20,11.30
2015,03,28,16,21,11.30
2015,03,28,16,22,11.30
2015,03,28,16,23,11.30
2015,03,28,16,24,11.30
2015,03,28,16,25,11.30
2015,03,28,16,26,11.30
2015,03,28,16,27,11.30
2015,03,28,16,28,11.30
2015,03,28,16,29,11.30
2015,03,28,16,30,11.20
2015,03,28,16,31,11.20
2015,03,28,16,32,11.20
2015,03,28,16,33,11.20
2015,03,28,16,34,11.20
2015,03,28,16,35,11.10
2015,03,28,16,36,11.10
2015,03,28,16,37,11.10
2015,03,28,16,38,11.00
2015,03,28,16,39,11.00
2015,03,28,16,40,11.00
2015,03,28,16,41,11.00
2015,03,28,16,42,10.90
2015,03,28,16,43,10.90
2015,03,28,16,44,10.90
2015,03,28,16,45,10.90
2015,03,28,16,46,10.90
2015,03,28,16,47,10.90
2015,03,28,16,48,10.90
2015,03,28,16,49,10.90
2015,03,28,16,50,10.80
2015,03,28,16,51,10.80
2015,03,28,16,52,10.80
2015,03,28,16,53,10.80
2015,03,28,16,54,10.80
2015,03,28,16,55,10.80
2015,03,28,16,56,10.80
2015,03,28,16,57,10.80
2015,03,28,16,58,10.80
2015,03,28,16,59,10.80
2015,03,28,17,00,10.80
2015,03,28,17,01,10.80
2015,03,28,17,02,10.70
2015,03,28,17,03,10.70
2015,03,28,17,04,10.70
2015,03,28,17,05,10.70
2015,03,28,17,06,10.70
2015,03,28,17,07,10.70
2015,03,28,17,08,10.70
2015,03,28,17,09,10.70
2015,03,28,17,10,10.70
2015,03,28,17,11,10.70
2015,03,28,17,12,10.70
2015,03,28,17,13,10.70
2015,03,28,17,14,10.70
2015,03,28,17,15,10.70
2015,03,28,17,16,10.70
2015,03,28,17,17,10.70
2015,03,28,17,18,10.70
2015,03,28,17,19,10.70
2015,03,28,17,20,10.70
2015,03,28,17,21,10.70
2015,03,28,17,22,10.70
2015,03,28,17,23,10.70
2015,03,28,17,24,10.70
2015,03,28,17,25,10.70
2015,03,28,17,26,10.70
2015,03,28,17,27,10.70
2015,03,28,17,28,10.70
2015,03,28,17,29,10.70
2015,03,28,17,30,10.70
2015,03,28,17,31,10.70
2015,03,28,17,32,10.70
2015,03,28,17,33,10.70
2015,03,28,17,34,10.70
2015,03,28,17,35,10.70
2015,03,28,17,36,10.70
2015,03,28,17,37,10.70
2015,03,28,17,38,10.70
2015,03,28,17,39,10.70
2015,03,28,17,40,10.70
2015,03,28,17,41,10.70
2015,03,28,17,42,10.70
2015,03,28,17,43,10.70